{"data":{"norad_id":65269,"epoch":"2026-05-25T03:11:49.670592Z","epoch_age_seconds":66723,"freshness":"FRESH","line1":"1 65269U 25182C   26145.13321378  .00063086  33703-5  15299-3 0  9995","line2":"2 65269  96.5864  76.7228 0003463 172.1821 187.9512 15.96433658 44010","mean_motion":15.96433658,"eccentricity":0.0003463,"inclination_deg":96.5864,"raan_deg":76.7228,"arg_perigee_deg":172.1821,"mean_anomaly_deg":187.9512,"bstar":0.00015299,"rev_number":4401,"period_min":90.201054881543,"perigee_km":282.01542709903,"apogee_km":286.62984664352,"semimajor_km":6662.4596368713,"source":"CELESTRAK","updated_at":"2026-05-25T13:38:05.286384Z"}}